Zurück zum Katalog

STARLINK-30416

AktivKommunikationVLEO
NORAD 57847·PAYLOAD·🇺🇸 United States

Gestartet Sep 12, 2023 von Vandenberg Space Force Base

Loading…

Nächste Überflüge (nächste 24 Stunden)

TLE

AktuellSource: CelesTrak SupGP

Epoche: Sep 14, 2026, 21:43 UTC

1 57847C 23141H   26257.90534722 -.00028843  00000+0 -92757-3 0  2572
2 57847  53.1577 123.9280 0001427  80.7359 352.9597 15.31713938    14

Verfolge STARLINK-30416 in Echtzeit mit AllMySat

Download on the App Store